RH
69 54 56 75 88 94 97 98 98 98 98 98 98 95 90 76 81 88 67 80 98 98 89 84 85 85 80 82 77 66 62 52 64 57 64 74 76 72 77 72 77 73 85 90 88 91 89 67 60 57 53 46 40 43
57 80 90 95 98 98 92 91 94 93 94 96 98 99 99 95 86 96 88 73 96 99 92 88 82 84 87 84 80 76 57 52 61 60 60 69 72 70 61 75 60 66 56 72 73 75 68 66 66 66 58 60 57 52
89 97 97 88 72 74 82 91 92 91 86 82 90 98 99 99 94 92 85 86 99 99 96 94 82 77 84 82 86 83 63 56 61 70 64 59 60 48 56 58 57 59 62 67 69 66 69 68 70 60 66 64 59 58
97 92 75 85 89 92 89 94 98 97 94 90 92 97 98 98 96 97 95 86 96 99 98 85 82 81 85 89 88 85 78 66 61 77 95 90 71 43 43 43 55 46 51 57 64 64 65 67 63 65 71 69 67 65
91 69 86 91 69 62 70 81 96 98 95 92 94 97 98 99 98 98 98 92 95 95 90 79 86 88 90 92 81 80 74 69 71 72 92 94 77 70 53 45 48 42 43 59 74 69 68 63 58 57 61 69 67 67
78 93 92 74 59 68 84 88 96 92 88 90 96 96 98 99 99 99 99 99 97 96 91 93 89 91 90 85 78 71 63 65 68 73 72 74 79 79 74 59 41 38 42 52 62 60 63 60 58 59 63 67 66 61
83 95 93 68 60 61 64 68 74 84 87 92 96 98 99 99 98 92 80 81 97 98 93 97 95 86 84 82 79 76 63 64 68 77 77 73 86 88 86 70 49 47 49 50 53 49 53 57 60 61 54 60 61 63
87 98 91 82 72 73 72 76 83 90 97 98 98 98 98 99 99 98 92 90 99 94 90 93 94 91 85 85 78 69 66 62 61 71 76 84 82 80 81 60 52 50 51 52 52 51 52 55 54 52 55 58 57 58
88 98 95 94 94 94 94 95 96 97 98 98 98 99 99 99 98 98 98 98 98 96 89 80 81 86 85 77 74 75 69 71 67 81 86 85 98 91 72 65 52 47 48 44 49 48 48 50 55 53 53 61 65 64
91 96 97 96 98 98 98 99 97 96 99 99 99 97 98 99 98 98 99 98 94 86 79 76 80 80 76 80 91 85 80 79 81 80 85 91 94 88 78 69 56 47 45 43 42 51 48 47 44 47 52 53 56 62
97 93 95 95 97 95 93 93 97 98 97 94 95 96 99 98 94 94 97 97 96 92 84 78 73 74 78 84 92 93 96 82 77 75 78 96 95 89 82 85 80 65 61 59 53 48 46 46 48 55 61 63 65 67
98 98 97 98 98 98 98 98 95 90 86 85 86 93 96 94 94 95 95 91 86 81 72 72 71 71 77 84 89 93 97 96 84 72 89 95 96 91 81 81 82 84 76 74 68 66 64 61 60 63 68 70 71 75
97 97 96 97 98 98 98 97 94 90 88 87 87 91 91 89 89 90 90 85 76 75 68 68 72 79 88 88 93 95 96 94 83 91 87 85 92 94 91 88 86 88 83 79 75 72 68 68 68 70 66 64 63 69
97 97 97 97 98 97 99 97 93 88 82 83 82 86 89 91 92 91 84 79 78 79 74 74 87 94 98 98 92 96 95 79 74 72 75 75 81 79 82 88 87 87 83 81 78 73 68 69 69 68 68 68 67 66
90 93 93 93 94 91 88 84 80 75 77 82 81 87 90 91 92 88 87 77 74 77 88 95 96 98 98 98 97 89 96 88 85 85 84 81 80 81 81 79 80 79 75 73 71 67 69 70 71 74 81 86 89 91
86 82 80 83 86 86 81 78 74 73 79 79 78 81 80 79 83 81 81 72 72 86 97 99 99 98 98 98 98 93 91 90 80 79 84 89 92 88 82 77 75 71 69 69 72 75 82 89 91 95 97 97 97 97
76 80 79 77 76 73 70 66 70 76 74 74 75 76 80 83 77 80 82 86 95 98 98 98 98 97 98 95 94 92 91 93 95 90 87 91 97 92 88 85 81 77 75 79 85 89 96 97 97 97 96 97 96 96
77 79 75 70 71 71 67 64 67 67 72 75 84 82 80 86 92 89 96 95 96 97 97 98 97 96 97 96 96 95 93 93 93 95 96 97 93 90 89 94 93 91 89 90 97 97 97 97 96 96 96 95 93 92
78 72 69 71 72 73 74 76 73 73 73 83 84 87 92 97 95 95 94 92 96 97 97 97 96 96 97 97 97 97 97 97 97 95 96 97 97 97 97 97 97 97 97 97 96 96 96 97 95 93 91 89 87 85
71 71 74 79 78 79 84 88 83 80 89 91 93 96 96 97 97 95 93 93 95 96 96 96 97 97 97 97 96 96 97 97 97 97 97 97 97 97 97 97 96 97 97 97 97 95 94 92 91 88 84 80 75 68
95 95 91 86 82 82 90 90 90 91 92 94 95 93 95 93 89 85 85 87 90 96 96 97 97 97 97 97 97 97 97 97 97 97 97 96 97 97 97 97 97 97 96 96 94 93 89 85 83 78 71 59 50 45
98 98 97 94 94 93 94 95 94 93 92 89 85 83 85 87 86 84 84 88 94 97 97 97 97 97 97 97 97 97 97 97 97 97 97 97 97 97 97 97 98 97 95 92 88 86 82 72 60 50 45 45 42 40
89 92 95 96 96 96 97 97 97 95 96 93 94 92 90 90 90 85 89 92 96 97 97 97 96 97 97 97 97 97 97 97 97 97 97 97 97 97 97 97 95 91 87 83 76 66 57 51 49 45 43 39 36 34
44 50 60 70 80 89 90 94 97 96 96 97 96 95 95 96 95 93 96 97 98 97 97 97 97 97 97 97 96 97 97 97 97 97 97 97 97 97 95 93 88 82 74 63 54 50 47 44 43 42 41 38 34 28
25 38 43 49 53 58 60 61 62 63 68 73 76 83 91 91 95 96 97 97 97 97 97 97 97 97 97 97 97 97 97 97 98 97 97 97 96 94 90 85 78 70 61 52 49 46 44 42 40 37 32 29 28 28
37 41 41 43 45 46 48 50 52 56 58 58 62 62 62 65 69 76 82 90 94 96 97 97 97 97 97 97 97 97 97 97 98 97 98 95 87 81 77 72 67 65 61 54 49 45 40 38 35 30 27 28 27 24
40 43 43 43 44 45 46 46 46 47 50 52 54 53 54 55 59 62 65 68 71 75 78 83 85 89 94 97 98 98 98 98 97 97 94 87 78 71 67 63 62 60 59 51 45 41 38 36 31 29 25 21 20 21
42 44 45 45 44 44 48 48 49 52 52 53 53 55 57 59 60 62 64 65 66 66 68 72 75 76 76 78 81 81 80 78 74 71 69 66 65 65 61 59 55 51 49 45 41 38 34 30 28 22 20 21 21 21
44 41 37 40 38 40 45 48 50 52 53 54 56 58 59 60 61 63 65 67 69 72 74 76 76 77 78 80 83 86 86 86 74 68 63 64 63 62 60 58 52 49 45 41 36 32 30 26 21 20 22 23 22 21
44 39 36 38 41 46 48 48 47 46 45 46 48 51 54 58 62 65 66 69 71 74 78 78 80 84 86 87 86 83 79 78 76 71 69 67 62 59 55 51 49 44 39 35 32 28 23 22 22 24 25 24 23 23
44 40 39 42 46 48 46 44 45 47 48 49 50 51 55 59 61 66 68 71 77 78 79 81 85 89 89 85 82 78 78 76 71 67 62 60 56 52 50 45 40 37 34 30 26 24 23 23 24 25 25 24 24 24
35 33 33 38 40 40 43 45 45 45 47 50 51 53 58 63 68 71 74 75 79 80 82 87 90 90 87 83 79 78 72 69 64 60 55 52 49 44 41 38 33 30 29 28 26 24 23 25 27 27 25 24 25 27
38 35 35 37 41 44 43 48 45 48 51 51 53 56 57 61 66 70 77 82 85 86 86 87 89 85 80 73 69 65 61 57 53 51 48 44 40 36 33 32 31 30 28 27 25 24 26 28 28 25 25 26 28 29